Home > Weather > Bad Salzuflen > Past weeks

Flag for Germany Past Weather in Bad Salzuflen, North Rhine-Westphalia, Germany — Yesterday and Last 2 Weeks

Now
68 °F

Fog.


Feels Like: 68 °F
Forecast: 59 / 67 °F
Wind: 6 mph from Northwest

Location: Bueckeburg

Current Time: Jun 24, 2016 at 10:35:53 PM

Latest Report: Jun 24, 2016 at 9:20 PM


Visibility: 3 mi

Pressure: 30.04 "Hg

Humidity: 100%

Dew Point: 68 °F

Location of Bad SalzuflenLocation

Past Weather in Bad Salzuflen — Graph

°F

Bad Salzuflen Temperature Yesterday

Maximum temperature yesterday: 90 °F (at 4:20 PM)
Minimum temperature yesterday: 61 °F (at 3:20 AM)
Average temperature yesterday: 78 °F

High & Low Weather Summary for the Past Weeks

 TemperatureHumidityPressure
High90 °F (Jun 23, 4:20 PM)100% (Jun 12, 10:20 PM)30.24 "Hg (Jun 12, 10:20 PM)
Low50 °F (Jun 10, 3:20 AM)38% (Jun 11, 4:20 PM)29.45 "Hg (Jun 14, 4:20 PM)
Average63 °F77%29.86 "Hg
* Reported Jun 9 9:20 PM — Jun 24 9:20 PM, Bad Salzuflen, Weather by CustomWeather, © 2016

Note: Actual official high and low records may vary slightly from our data, if they occured in-between our weather recording intervals... More about our weather records

Advertising

Bad Salzuflen Weather History for the Previous 24 Hours

Scroll right to see more
 ConditionsComfort  
Time TempWeatherWind HumidityBarometerVisibility
9:20 PM
Fri, Jun 24
68 °FFog.6 mph100%30.04 "Hg3 mi
8:20 PM70 °FSprinkles. Partly sunny.7 mph88%30.04 "HgN/A
7:20 PM73 °FThundershowers. Partly sunny.2 mph83%30.04 "HgN/A
6:20 PM73 °FPartly sunny.5 mph83%30.01 "HgN/A
5:20 PM73 °FThunderstorms. Partly sunny.6 mph89%29.98 "HgN/A
4:58 PM75 °FThunderstorms. Broken clouds.10 mph89%30.01 "HgN/A
4:20 PM79 °FThunderstorms. Broken clouds.6 mph84%29.98 "Hg4 mi
4:00 PM81 °FThundershowers. Partly sunny.6 mph79%30.01 "HgN/A
3:20 PM82 °FPartly sunny.2 mph66%30.01 "HgN/A
2:20 PM82 °FSprinkles. Broken clouds.7 mph66%30.01 "HgN/A
1:20 PM82 °FBroken clouds.9 mph58%30.01 "HgN/A
12:20 PM81 °FPartly sunny.6 mph58%30.04 "HgN/A
11:20 AM81 °FScattered clouds.9 mph58%30.01 "HgN/A
10:20 AM77 °FScattered clouds.8 mph69%30.01 "HgN/A
9:20 AM70 °FThundershowers. Broken clouds.9 mph88%30.07 "HgN/A
8:20 AM72 °FPartly sunny.7 mph83%30.01 "HgN/A
7:20 AM70 °FScattered clouds.5 mph88%30.01 "HgN/A
6:20 AM68 °FScattered clouds.3 mph94%30.04 "HgN/A
5:20 AM66 °FPassing clouds.6 mph94%30.04 "HgN/A
4:20 AM66 °FPassing clouds.5 mph94%30.04 "HgN/A
3:20 AM64 °FPassing clouds.6 mph100%30.04 "HgN/A
2:20 AM66 °FThunderstorms. Partly cloudy.3 mph100%30.07 "HgN/A
1:20 AM68 °FStrong thunderstorms. Partly cloudy.29 mph94%30.12 "Hg1 mi
12:20 AM75 °FThunderstorms. Partly cloudy.5 mph78%30.01 "HgN/A
11:20 PM
Thu, Jun 23
79 °FThunderstorms. Passing clouds.2 mph61%29.98 "HgN/A
10:20 PM82 °FPartly sunny.7 mph51%29.98 "HgN/A
Weather by CustomWeather, © 2016

See weather overviewHow to use our weather pages